TAM3304 SBGR-SBNF

Flight info

Callsign TAM3304
Flight time 0h 48m
Altitude 32000
Route MADNI UZ92 PUBIS
Aircraft A320/M-SDE2FGHIM1RWXYZ/LB1

Departure

Time 2026-04-26 01:27
Airport São Paulo/Guarulhos–Governor André Franco Montoro International Airport (SBGR)

Arrival

Time 2026-04-26 02:16
Airport Ministro Victor Konder International Airport (SBNF)
Time Latitude Longitude Altitude Speed Heading
2026-04-26 00:52 -23.42702 -46.48086 2447 ft 0 kts 84°
2026-04-26 01:18 -23.42702 -46.48093 2447 ft 2 kts 78°
2026-04-26 01:18 -23.42707 -46.48109 2447 ft 2 kts 61°
2026-04-26 01:18 -23.42716 -46.48122 2447 ft 2 kts 45°
2026-04-26 01:19 -23.42727 -46.48133 2447 ft 2 kts 44°
2026-04-26 01:19 -23.42735 -46.48146 2447 ft 2 kts 84°
2026-04-26 01:19 -23.42732 -46.48161 2447 ft 1 kts 127°
2026-04-26 01:20 -23.42758 -46.48141 2447 ft 5 kts 157°
2026-04-26 01:20 -23.42797 -46.48134 2447 ft 4 kts 175°
2026-04-26 01:20 -23.42814 -46.48132 2447 ft 0 kts 175°
2026-04-26 01:23 -23.42823 -46.48131 2447 ft 2 kts 175°
2026-04-26 01:23 -23.42843 -46.48129 2446 ft 3 kts 174°
2026-04-26 01:23 -23.42878 -46.48126 2446 ft 6 kts 177°
2026-04-26 01:23 -23.42927 -46.48135 2446 ft 8 kts 194°
2026-04-26 01:24 -23.42993 -46.48136 2446 ft 10 kts 174°
2026-04-26 01:24 -23.43068 -46.48129 2446 ft 11 kts 173°
2026-04-26 01:24 -23.43145 -46.48113 2446 ft 8 kts 165°
2026-04-26 01:24 -23.43197 -46.48131 2446 ft 9 kts 245°
2026-04-26 01:25 -23.43218 -46.48202 2446 ft 10 kts 253°
2026-04-26 01:25 -23.43239 -46.48281 2446 ft 11 kts 252°
2026-04-26 01:25 -23.43281 -46.48343 2446 ft 8 kts 222°
2026-04-26 01:25 -23.43336 -46.48352 2446 ft 8 kts 167°
2026-04-26 01:26 -23.43398 -46.48333 2446 ft 9 kts 161°
2026-04-26 01:26 -23.43414 -46.48287 2446 ft 0 kts 73°
2026-04-26 01:26 -23.43411 -46.48273 2446 ft 15 kts 73°
2026-04-26 01:26 -23.43301 -46.47866 2447 ft 92 kts 73°
2026-04-26 01:27 -23.43057 -46.46965 2448 ft 154 kts 73°
2026-04-26 01:27 -23.42717 -46.45742 2790 ft 174 kts 71°
2026-04-26 01:27 -23.42353 -46.44503 3315 ft 180 kts 70°
2026-04-26 01:27 -23.41957 -46.43139 3697 ft 197 kts 71°
2026-04-26 01:28 -23.41533 -46.41662 4085 ft 215 kts 71°
2026-04-26 01:28 -23.41060 -46.40002 4425 ft 239 kts 71°
2026-04-26 01:28 -23.40554 -46.38225 4891 ft 257 kts 72°
2026-04-26 01:28 -23.40220 -46.36266 5353 ft 276 kts 90°
2026-04-26 01:29 -23.40564 -46.34181 5973 ft 285 kts 109°
2026-04-26 01:29 -23.41235 -46.32148 6759 ft 289 kts 111°
2026-04-26 01:29 -23.42016 -46.30129 7559 ft 290 kts 123°
2026-04-26 01:29 -23.43432 -46.28652 8280 ft 287 kts 155°
2026-04-26 01:30 -23.45334 -46.28223 9026 ft 284 kts 186°
2026-04-26 01:30 -23.47213 -46.28848 9774 ft 284 kts 208°
2026-04-26 01:30 -23.48941 -46.29924 10452 ft 289 kts 210°
2026-04-26 01:30 -23.50719 -46.31044 10837 ft 304 kts 211°
2026-04-26 01:31 -23.52587 -46.32220 11382 ft 313 kts 211°
2026-04-26 01:31 -23.54473 -46.33406 12034 ft 315 kts 211°
2026-04-26 01:31 -23.56362 -46.34595 12677 ft 317 kts 211°
2026-04-26 01:31 -23.58269 -46.35795 13306 ft 320 kts 211°
2026-04-26 01:32 -23.60214 -46.37020 13909 ft 322 kts 212°
2026-04-26 01:32 -23.62149 -46.38236 14489 ft 324 kts 212°
2026-04-26 01:32 -23.64121 -46.39478 15057 ft 327 kts 212°
2026-04-26 01:32 -23.66078 -46.40711 15591 ft 329 kts 213°
2026-04-26 01:33 -23.68064 -46.41963 16108 ft 332 kts 213°
2026-04-26 01:33 -23.70089 -46.43240 16632 ft 334 kts 213°
2026-04-26 01:33 -23.72098 -46.44508 17113 ft 337 kts 213°
2026-04-26 01:33 -23.74124 -46.45787 17581 ft 339 kts 214°
2026-04-26 01:34 -23.76174 -46.47081 18043 ft 341 kts 214°
2026-04-26 01:34 -23.78230 -46.48380 18513 ft 343 kts 214°
2026-04-26 01:34 -23.80300 -46.49689 18965 ft 345 kts 214°
2026-04-26 01:34 -23.82383 -46.51005 19405 ft 346 kts 214°
2026-04-26 01:35 -23.84468 -46.52324 19825 ft 349 kts 214°
2026-04-26 01:35 -23.86585 -46.53663 20240 ft 351 kts 214°
2026-04-26 01:35 -23.88701 -46.55002 20629 ft 353 kts 214°
2026-04-26 01:35 -23.90819 -46.56342 21011 ft 355 kts 214°
2026-04-26 01:36 -23.92976 -46.57708 21396 ft 357 kts 214°
2026-04-26 01:36 -23.95136 -46.59076 21777 ft 358 kts 214°
2026-04-26 01:36 -23.97289 -46.60439 22142 ft 359 kts 215°
2026-04-26 01:37 -24.01623 -46.63187 22900 ft 362 kts 215°
2026-04-26 01:37 -24.03811 -46.64575 23276 ft 364 kts 215°
2026-04-26 01:37 -24.05997 -46.65962 23666 ft 365 kts 216°
2026-04-26 01:37 -24.08198 -46.67359 24073 ft 366 kts 216°
2026-04-26 01:38 -24.10411 -46.68765 24460 ft 367 kts 216°
2026-04-26 01:38 -24.12603 -46.70158 24814 ft 369 kts 216°
2026-04-26 01:38 -24.14850 -46.71587 25205 ft 370 kts 216°
2026-04-26 01:38 -24.17055 -46.72988 25566 ft 372 kts 216°
2026-04-26 01:39 -24.19306 -46.74421 25912 ft 374 kts 216°
2026-04-26 01:39 -24.21548 -46.75848 26255 ft 375 kts 216°
2026-04-26 01:39 -24.23817 -46.77293 26597 ft 377 kts 216°
2026-04-26 01:39 -24.26099 -46.78747 26940 ft 379 kts 216°
2026-04-26 01:40 -24.28383 -46.80201 27292 ft 380 kts 216°
2026-04-26 01:40 -24.30649 -46.81645 27602 ft 382 kts 216°
2026-04-26 01:40 -24.32964 -46.83123 27922 ft 384 kts 216°
2026-04-26 01:40 -24.35259 -46.84587 28238 ft 385 kts 217°
2026-04-26 01:41 -24.37594 -46.86077 28555 ft 387 kts 216°
2026-04-26 01:41 -24.39916 -46.87561 28886 ft 388 kts 216°
2026-04-26 01:41 -24.42269 -46.89064 29195 ft 390 kts 216°
2026-04-26 01:41 -24.44592 -46.90549 29471 ft 392 kts 216°
2026-04-26 01:42 -24.46957 -46.92062 29743 ft 394 kts 217°
2026-04-26 01:42 -24.49343 -46.93588 30015 ft 396 kts 216°
2026-04-26 01:42 -24.51735 -46.95119 30273 ft 399 kts 217°
2026-04-26 01:42 -24.54131 -46.96653 30536 ft 401 kts 217°
2026-04-26 01:43 -24.56544 -46.98200 30779 ft 403 kts 217°
2026-04-26 01:43 -24.58982 -46.99762 31020 ft 406 kts 217°
2026-04-26 01:43 -24.61412 -47.01367 31267 ft 406 kts 218°
2026-04-26 01:43 -24.63786 -47.03034 31503 ft 408 kts 219°
2026-04-26 01:44 -24.66177 -47.04729 31762 ft 410 kts 219°
2026-04-26 01:44 -24.68564 -47.06423 31911 ft 412 kts 219°
2026-04-26 01:44 -24.70974 -47.08134 31919 ft 411 kts 219°
2026-04-26 01:45 -24.75788 -47.11548 31911 ft 409 kts 219°
2026-04-26 01:45 -24.80617 -47.14983 31916 ft 421 kts 219°
2026-04-26 01:46 -24.85597 -47.18529 31910 ft 434 kts 219°
2026-04-26 01:46 -24.90743 -47.22190 31911 ft 442 kts 219°
2026-04-26 01:47 -24.95931 -47.25880 31905 ft 445 kts 219°
2026-04-26 01:47 -25.01126 -47.29579 31903 ft 444 kts 219°
2026-04-26 01:48 -25.06307 -47.33276 31908 ft 443 kts 219°
2026-04-26 01:48 -25.11463 -47.36957 31906 ft 443 kts 219°
2026-04-26 01:49 -25.16633 -47.40658 31902 ft 443 kts 219°
2026-04-26 01:49 -25.21805 -47.44362 31903 ft 443 kts 219°
2026-04-26 01:50 -25.26985 -47.48072 31906 ft 442 kts 219°
2026-04-26 01:50 -25.32130 -47.51768 31909 ft 440 kts 219°
2026-04-26 01:51 -25.37267 -47.55463 31907 ft 441 kts 219°
2026-04-26 01:51 -25.42397 -47.59152 31905 ft 441 kts 219°
2026-04-26 01:52 -25.47536 -47.62851 31904 ft 441 kts 219°
2026-04-26 01:52 -25.52671 -47.66553 31905 ft 440 kts 219°
2026-04-26 01:53 -25.57762 -47.70225 31901 ft 439 kts 220°
2026-04-26 01:53 -25.62881 -47.73922 31901 ft 439 kts 220°
2026-04-26 01:54 -25.68004 -47.77629 31901 ft 439 kts 220°
2026-04-26 01:54 -25.73093 -47.81313 31900 ft 439 kts 220°
2026-04-26 01:55 -25.78232 -47.85037 31901 ft 439 kts 220°
2026-04-26 01:55 -25.83322 -47.88731 31908 ft 438 kts 220°
2026-04-26 01:55 -25.85865 -47.90577 31544 ft 439 kts 220°
2026-04-26 01:56 -25.88414 -47.92429 30620 ft 440 kts 220°
2026-04-26 01:56 -25.90977 -47.94294 29754 ft 439 kts 220°
2026-04-26 01:56 -25.93515 -47.96136 28908 ft 438 kts 220°
2026-04-26 01:56 -25.96028 -47.97962 28196 ft 433 kts 220°
2026-04-26 01:57 -25.98537 -47.99785 27665 ft 424 kts 220°
2026-04-26 01:57 -26.00960 -48.01592 27140 ft 414 kts 222°
2026-04-26 01:57 -26.03225 -48.03485 26625 ft 404 kts 225°
2026-04-26 01:57 -26.05334 -48.05473 26110 ft 395 kts 228°
2026-04-26 01:58 -26.07323 -48.07539 25601 ft 387 kts 230°
2026-04-26 01:58 -26.09247 -48.09580 25114 ft 381 kts 230°
2026-04-26 01:58 -26.11157 -48.11611 24623 ft 376 kts 230°
2026-04-26 01:58 -26.13021 -48.13597 24129 ft 370 kts 230°
2026-04-26 01:59 -26.14879 -48.15579 23652 ft 365 kts 230°
2026-04-26 01:59 -26.16730 -48.17465 23189 ft 363 kts 227°
2026-04-26 01:59 -26.18684 -48.19213 22710 ft 363 kts 224°
2026-04-26 01:59 -26.20765 -48.20841 22133 ft 366 kts 220°
2026-04-26 02:00 -26.22923 -48.22377 21544 ft 368 kts 219°
2026-04-26 02:00 -26.25061 -48.23877 21001 ft 368 kts 219°
2026-04-26 02:00 -26.27235 -48.25397 20446 ft 368 kts 218°
2026-04-26 02:00 -26.29409 -48.26919 19886 ft 368 kts 218°
2026-04-26 02:01 -26.31569 -48.28429 19330 ft 368 kts 217°
2026-04-26 02:01 -26.33722 -48.29934 18776 ft 369 kts 217°
2026-04-26 02:01 -26.35919 -48.31470 18203 ft 369 kts 217°
2026-04-26 02:01 -26.38067 -48.32975 17641 ft 369 kts 216°
2026-04-26 02:02 -26.40267 -48.34513 17078 ft 369 kts 216°
2026-04-26 02:02 -26.42439 -48.36031 16534 ft 368 kts 216°
2026-04-26 02:02 -26.44576 -48.37525 15995 ft 367 kts 216°
2026-04-26 02:02 -26.46762 -48.39055 15460 ft 366 kts 216°
2026-04-26 02:03 -26.48904 -48.40557 14974 ft 363 kts 216°
2026-04-26 02:03 -26.51018 -48.42040 14431 ft 362 kts 216°
2026-04-26 02:03 -26.53153 -48.43539 13896 ft 361 kts 216°
2026-04-26 02:03 -26.55267 -48.45024 13363 ft 359 kts 216°
2026-04-26 02:04 -26.57368 -48.46501 12836 ft 357 kts 215°
2026-04-26 02:04 -26.59473 -48.47979 12302 ft 355 kts 216°
2026-04-26 02:04 -26.61551 -48.49440 11791 ft 352 kts 215°
2026-04-26 02:04 -26.63623 -48.50897 11266 ft 349 kts 216°
2026-04-26 02:05 -26.65664 -48.52332 10761 ft 346 kts 216°
2026-04-26 02:05 -26.67677 -48.53748 10477 ft 334 kts 216°
2026-04-26 02:05 -26.69504 -48.55238 10284 ft 318 kts 226°
2026-04-26 02:05 -26.70918 -48.57011 10122 ft 302 kts 237°
2026-04-26 02:06 -26.72096 -48.58897 9987 ft 289 kts 239°
2026-04-26 02:06 -26.73203 -48.60731 9580 ft 281 kts 239°
2026-04-26 02:06 -26.74276 -48.62514 9163 ft 272 kts 239°
2026-04-26 02:06 -26.75329 -48.64258 8766 ft 270 kts 239°
2026-04-26 02:07 -26.76369 -48.65971 8401 ft 259 kts 239°
2026-04-26 02:07 -26.77366 -48.67610 8046 ft 256 kts 239°
2026-04-26 02:07 -26.78367 -48.69255 7678 ft 255 kts 239°
2026-04-26 02:07 -26.79366 -48.70895 7327 ft 255 kts 239°
2026-04-26 02:08 -26.80365 -48.72535 7043 ft 251 kts 239°
2026-04-26 02:08 -26.81322 -48.74104 6970 ft 240 kts 239°
2026-04-26 02:08 -26.81980 -48.75183 6719 ft 241 kts 239°
2026-04-26 02:08 -26.82429 -48.75922 6538 ft 242 kts 239°
2026-04-26 02:09 -26.83384 -48.77494 6175 ft 244 kts 239°
2026-04-26 02:09 -26.84336 -48.79061 5830 ft 245 kts 239°
2026-04-26 02:09 -26.85296 -48.80642 5481 ft 246 kts 238°
2026-04-26 02:09 -26.86251 -48.82214 5141 ft 246 kts 238°
2026-04-26 02:10 -26.87222 -48.83810 4802 ft 247 kts 238°
2026-04-26 02:10 -26.88215 -48.85355 4440 ft 249 kts 228°
2026-04-26 02:10 -26.89713 -48.86331 4048 ft 255 kts 191°
2026-04-26 02:10 -26.91449 -48.86112 3836 ft 250 kts 155°
2026-04-26 02:11 -26.92888 -48.85079 3669 ft 243 kts 144°
2026-04-26 02:11 -26.94235 -48.83993 3485 ft 237 kts 145°
2026-04-26 02:11 -26.95572 -48.82940 3311 ft 230 kts 146°
2026-04-26 02:11 -26.96831 -48.81878 3135 ft 223 kts 133°
2026-04-26 02:12 -26.97454 -48.80366 2912 ft 216 kts 89°
2026-04-26 02:12 -26.97017 -48.78869 2827 ft 197 kts 51°
2026-04-26 02:12 -26.96125 -48.77767 2691 ft 186 kts 45°
2026-04-26 02:12 -26.95275 -48.76714 2429 ft 182 kts 48°
2026-04-26 02:13 -26.94474 -48.75616 2137 ft 180 kts 51°
2026-04-26 02:13 -26.93734 -48.74512 1885 ft 175 kts 53°
2026-04-26 02:13 -26.93050 -48.73440 1655 ft 161 kts 54°
2026-04-26 02:13 -26.92430 -48.72444 1435 ft 149 kts 55°
2026-04-26 02:14 -26.91852 -48.71509 1243 ft 146 kts 55°
2026-04-26 02:14 -26.91277 -48.70568 1055 ft 145 kts 56°
2026-04-26 02:14 -26.90703 -48.69628 868 ft 145 kts 56°
2026-04-26 02:14 -26.90138 -48.68701 680 ft 145 kts 57°
2026-04-26 02:15 -26.89575 -48.67768 492 ft 144 kts 57°
2026-04-26 02:15 -26.89007 -48.66838 290 ft 144 kts 56°
2026-04-26 02:15 -26.88439 -48.65919 97 ft 145 kts 59°
2026-04-26 02:15 -26.87895 -48.65012 32 ft 123 kts 55°
2026-04-26 02:16 -26.87596 -48.64523 32 ft 29 kts 56°
2026-04-26 02:16 -26.87551 -48.64448 32 ft 9 kts 56°
2026-04-26 02:16 -26.87535 -48.64402 32 ft 3 kts 96°
2026-04-26 02:16 -26.87519 -48.64396 32 ft 3 kts 311°
2026-04-26 02:17 -26.87534 -48.64424 31 ft 6 kts 220°
2026-04-26 02:17 -26.87564 -48.64469 32 ft 8 kts 236°
2026-04-26 02:17 -26.87604 -48.64534 32 ft 11 kts 236°
2026-04-26 02:17 -26.87655 -48.64617 32 ft 14 kts 235°
2026-04-26 02:18 -26.87716 -48.64718 32 ft 16 kts 236°
2026-04-26 02:18 -26.87784 -48.64830 32 ft 17 kts 236°
2026-04-26 02:18 -26.87855 -48.64946 32 ft 18 kts 236°
2026-04-26 02:18 -26.87891 -48.64997 32 ft 6 kts 208°
2026-04-26 02:19 -26.87937 -48.64985 32 ft 7 kts 146°
2026-04-26 02:19 -26.87977 -48.64962 32 ft 5 kts 184°
2026-04-26 02:19 -26.88006 -48.65000 32 ft 7 kts 236°
2026-04-26 02:19 -26.88023 -48.65026 32 ft 3 kts 224°
2026-04-26 02:20 -26.88044 -48.65019 32 ft 3 kts 140°
2026-04-26 02:20 -26.88062 -48.65005 32 ft 0 kts 146°